Temperature
15 15 15 15 15 15 14 14 14 15 15 15 15 15 15 15 15 15 15 15 16 16 16 16 16 16 16 16 16 16 16 15 15 15 15 15 15 15
15 15 15 15 14 14 14 14 14 14 14 15 15 15 15 15 15 15 15 15 15 15 15 15 16 16 16 16 16 16 16 15 15 15 15 15 15 15
15 15 15 15 14 14 14 14 14 14 14 15 15 15 15 15 15 15 15 15 15 15 15 15 15 16 16 16 16 16 16 15 15 15 15 15 15 15
15 15 15 15 14 14 14 14 14 14 14 14 14 15 15 14 14 14 15 15 15 15 16 16 16 16 16 16 16 15 15 15 15 15 15 15 14 14
15 15 15 15 14 14 14 14 14 14 14 14 14 14 14 14 14 14 14 14 15 15 15 16 16 15 15 15 15 15 15 15 15 15 15 14 14 14
15 15 15 15 14 14 14 14 14 14 14 14 14 14 14 14 14 14 14 14 14 14 15 15 15 15 15 15 15 15 15 15 15 14 14 14 14 14
15 15 15 15 15 15 14 14 14 14 14 14 14 14 14 14 14 14 14 14 14 14 14 14 15 15 15 15 15 15 15 15 14 14 14 14 14 14
15 15 15 15 15 15 15 15 14 14 14 14 13 13 13 13 13 13 13 13 13 14 14 14 14 14 14 14 14 15 15 14 14 14 14 14 14 14
15 15 15 15 15 15 15 15 14 14 14 14 13 13 13 13 13 13 13 13 13 13 13 13 13 13 13 13 14 14 14 14 14 13 13 13 13 13
14 14 14 14 14 14 14 14 14 14 14 14 14 13 13 13 13 13 13 13 13 12 12 13 13 13 13 13 13 13 13 13 13 13 13 13 13 13
13 14 14 14 14 14 14 14 14 14 14 14 14 14 14 13 13 13 12 12 12 12 12 12 12 12 12 12 12 12 12 12 12 12 12 12 12 12
13 13 13 13 14 14 14 14 14 14 14 14 14 14 14 13 13 13 12 12 12 12 12 12 12 12 12 12 12 12 12 12 12 12 12 12 12 12
12 12 12 13 13 13 14 14 14 14 13 13 13 13 13 13 13 13 12 12 12 12 12 12 12 11 11 11 12 12 11 11 11 11 11 11 11 11
11 11 12 12 13 13 13 13 13 13 13 13 13 13 13 12 12 12 12 12 12 12 11 11 11 11 11 11 11 11 11 11 11 11 11 11 11 11
11 11 11 12 12 12 13 13 13 13 13 13 13 13 12 12 12 12 12 12 11 11 11 11 11 11 11 11 11 10 10 10 10 10 10 10 10 10
10 10 11 11 11 12 12 12 12 12 12 12 12 12 12 12 12 11 11 11 11 11 11 11 11 10 10 10 10 10 10 10 10 10 10 10 10 9
10 10 10 11 11 11 11 11 12 12 12 12 12 12 11 11 11 11 11 11 11 10 10 10 10 10 10 10 10 9 9 9 9 9 9 9 9 9
10 10 10 10 10 10 11 11 11 11 11 11 11 11 11 11 10 10 10 10 10 10 10 9 10 10 10 9 9 9 9 9 9 9 9 9 8 8
10 9 10 10 10 10 10 10 10 10 11 11 10 10 10 10 10 10 10 10 9 9 9 9 9 9 9 9 8 8 8 8 8 8 8 8 7 7
9 9 9 9 9 10 10 10 10 10 10 10 10 10 10 10 9 9 9 9 9 9 8 8 8 8 8 7 7 7 7 7 7 7 7 7 7 6
9 9 9 9 9 9 9 9 9 9 9 9 9 9 9 9 8 8 8 8 8 8 8 8 7 7 7 7 7 6 6 6 6 6 6 6 6 6
8 8 9 9 9 9 9 9 9 9 9 9 9 8 8 8 8 8 8 8 8 7 7 7 7 7 6 6 6 6 6 6 5 5 5 5 4 4
8 8 8 8 9 9 8 9 9 9 8 8 8 7 7 7 7 7 7 7 7 7 7 6 6 6 5 5 5 5 5 5 5 5 4 4 4 4
Wind_Speed
1 1 2 2 2 3 3 4 4 4 5 5 3 3 5 8 12 16 14 18 19 18 16 14 12 11 10 8 7 6 5 4 4 5 6 6 7 6
1 2 3 3 3 3 4 4 5 5 4 4 4 2 2 3 9 12 13 17 22 21 20 18 16 14 13 11 10 9 8 7 6 6 6 7 7 7
5 6 6 5 4 4 4 4 4 5 5 4 3 3 2 2 3 7 8 9 15 21 22 21 19 17 16 14 13 12 11 10 9 8 7 7 8 8
5 3 3 3 3 3 3 4 5 5 5 5 4 3 4 3 3 5 5 8 11 18 23 22 21 20 19 17 16 15 14 13 12 10 8 8 8 8
6 4 3 2 3 2 3 4 4 4 4 4 4 3 3 3 3 4 5 4 6 9 19 21 21 21 20 20 20 19 18 16 15 13 11 9 9 9
5 6 5 3 2 1 1 1 2 3 2 3 2 2 2 2 2 3 4 4 4 3 8 13 18 21 22 22 21 21 21 19 18 16 14 12 10 9
4 4 3 6 7 4 2 2 2 0 1 1 1 1 1 1 3 3 3 3 3 3 3 4 7 9 14 19 22 22 22 21 20 18 17 15 13 12
4 3 3 7 8 6 5 3 1 1 1 0 1 1 2 2 1 1 1 1 2 2 1 3 2 4 5 9 14 20 22 22 21 19 18 17 15 14
6 4 2 4 8 7 7 6 4 3 2 0 1 0 1 1 2 1 1 1 2 2 2 3 2 2 2 3 5 7 14 17 18 17 17 17 16 15
6 4 2 1 2 2 4 5 5 6 5 2 2 3 4 3 3 1 1 0 1 0 1 2 3 2 3 5 6 3 2 6 9 12 14 15 15 15
4 3 4 4 5 4 2 1 2 3 5 7 7 6 6 5 3 2 1 1 1 1 1 1 2 3 2 2 4 4 4 3 5 8 10 11 12 12
5 5 8 7 6 6 4 3 3 2 3 3 3 3 3 3 2 0 1 1 1 1 0 0 2 2 3 2 2 3 3 4 6 7 8 9 8 7
5 5 6 8 7 7 5 3 3 3 2 2 2 2 2 3 2 1 1 1 0 1 1 1 1 1 1 3 3 2 2 2 4 5 7 7 7 7
5 4 4 7 6 5 3 3 4 4 2 2 2 2 2 2 2 1 1 0 0 1 3 3 0 0 1 2 3 3 2 3 2 2 3 3 6 9
3 4 5 6 6 3 1 0 1 1 1 2 3 2 2 2 3 3 3 3 2 2 1 2 1 1 1 2 3 3 3 2 1 2 2 1 2 2
4 3 3 4 3 3 1 1 1 1 2 3 3 3 3 3 3 2 2 2 2 2 2 3 2 1 2 3 2 3 3 3 4 4 3 3 4 4
5 4 4 3 4 4 4 4 4 4 4 3 4 3 3 3 2 2 2 3 3 2 3 4 5 5 2 2 2 3 4 4 4 5 5 4 4 4
8 7 8 7 7 7 6 6 6 5 5 4 4 4 4 4 3 3 3 4 4 4 4 4 5 5 4 6 7 5 4 4 4 5 4 4 4 4
10 9 9 9 8 8 8 7 7 6 6 6 6 5 5 5 4 4 5 4 4 4 4 4 5 5 5 4 5 8 5 4 5 5 5 4 4 4
8 8 8 8 8 8 8 7 7 7 7 7 6 6 6 5 5 4 4 5 4 4 4 4 4 4 2 2 3 3 6 4 4 4 5 4 4 4
7 7 7 7 7 7 7 7 7 7 7 6 6 6 6 5 5 4 4 6 5 4 4 4 3 3 2 3 3 4 4 6 4 2 4 4 5 5
6 6 7 7 7 6 6 6 6 6 7 6 5 5 5 5 5 5 5 4 4 4 4 3 4 4 4 4 4 4 5 5 5 6 5 4 2 3
5 5 5 6 6 6 6 6 7 6 5 5 5 5 4 4 4 4 5 5 5 5 5 5 5 4 4 4 4 5 7 7 6 5 5 8 7 5
Wind_Direction
337 271 223 231 237 232 223 205 197 219 239 233 228 219 206 201 193 192 193 198 201 204 205 207 210 213 215 217 219 223 232 246 262 272 279 284 291 301
182 268 265 240 236 229 225 225 210 208 237 233 216 212 194 177 181 199 209 207 207 207 208 209 212 216 219 221 223 225 230 238 251 262 270 277 281 285
224 215 224 222 218 223 227 231 227 212 228 250 222 204 176 201 184 234 239 209 207 211 212 212 213 216 220 224 227 229 231 235 243 253 264 273 277 277
271 263 239 204 202 224 219 227 231 224 217 238 234 215 214 219 208 238 244 223 211 215 215 216 216 218 221 225 228 231 232 234 237 243 254 267 275 275
225 232 253 213 197 213 215 226 232 236 220 225 242 222 224 224 226 243 254 260 255 227 213 217 220 222 225 228 230 233 234 235 236 238 244 256 268 273
229 209 203 208 154 148 201 221 230 233 230 229 244 245 234 223 195 224 249 252 259 258 214 216 222 226 229 231 234 235 237 237 238 239 241 246 253 260
262 251 178 129 109 99 84 43 20 294 214 215 240 246 232 204 214 210 235 270 274 254 242 222 214 221 228 236 239 240 239 238 239 239 240 243 246 250
289 268 170 154 152 151 154 151 114 37 41 147 193 243 257 222 204 193 220 287 288 306 284 271 226 231 234 229 238 237 237 237 238 240 240 241 242 245
300 294 259 168 165 178 189 194 201 200 194 27 6 218 106 119 129 139 187 235 267 330 9 305 322 298 300 326 325 251 236 237 240 242 243 243 243 244
282 282 292 174 167 147 174 195 196 187 195 195 70 79 79 71 80 107 146 230 280 304 71 305 334 333 352 9 23 25 262 254 254 254 252 250 248 248
322 7 38 63 59 48 25 44 121 134 136 114 102 102 98 85 67 55 53 27 320 302 77 339 336 332 332 341 4 18 11 327 295 282 275 269 263 259
355 50 60 65 53 38 21 33 66 77 118 137 143 158 180 171 166 157 95 69 329 321 106 108 339 352 341 323 308 319 329 321 308 295 288 282 274 258
6 40 50 45 40 31 25 36 66 23 26 105 116 115 118 132 164 201 140 139 307 295 181 152 338 357 328 316 312 291 277 297 309 302 291 281 266 242
5 22 28 17 10 1 20 62 40 10 5 71 89 83 77 73 65 69 84 95 135 189 181 168 204 301 324 315 308 313 294 270 278 298 308 288 273 261
346 354 347 351 343 329 186 97 335 324 31 90 102 101 86 76 62 44 29 30 30 39 96 160 185 283 291 296 312 318 325 328 329 333 330 298 278 263
352 346 344 358 357 5 83 199 215 87 90 101 106 98 87 67 51 42 32 12 29 7 6 18 345 316 305 293 305 320 339 347 353 349 343 331 323 322
358 9 22 23 32 38 42 47 55 67 70 76 91 92 84 80 60 37 32 30 44 31 11 355 344 329 305 327 7 15 20 18 5 356 355 344 344 7
37 38 34 35 41 44 46 46 49 52 59 70 75 77 76 75 61 36 34 41 45 40 31 12 5 1 8 37 41 43 28 11 357 359 7 358 347 24
46 42 38 37 38 40 43 45 44 42 51 59 61 58 58 57 55 46 37 35 38 38 36 32 30 28 23 4 0 37 30 7 0 1 3 -0 340 9
40 39 37 35 35 36 38 40 41 39 43 48 48 45 44 48 46 44 45 33 29 32 33 36 36 28 14 324 320 1 35 32 12 3 352 346 357 73
38 36 32 30 31 32 33 38 43 41 39 42 38 34 32 36 37 37 44 40 37 34 30 19 355 324 309 2 14 3 2 33 50 48 3 4 360 7
44 37 30 29 26 25 28 33 41 41 33 33 30 24 22 31 36 37 36 38 36 29 19 6 0 14 31 39 25 11 12 11 33 52 58 51 34 8
51 49 35 26 23 20 24 33 41 39 31 20 17 15 16 21 30 40 37 40 36 27 20 13 10 25 31 32 36 35 26 16 14 26 27 23 18 1
Height
1529 1529 1529 1529 1530 1531 1532 1534 1535 1534 1535 1536 1536 1537 1538 1539 1540 1541 1542 1543 1544 1545 1546 1547 1547 1548 1548 1549 1549 1549 1549 1549 1548 1547 1545 1544 1542 1541
1526 1527 1526 1527 1527 1528 1528 1529 1530 1531 1531 1531 1532 1533 1534 1535 1536 1538 1539 1540 1541 1542 1543 1544 1544 1545 1545 1546 1546 1546 1547 1546 1546 1545 1543 1542 1541 1539
1524 1524 1524 1524 1524 1525 1525 1525 1526 1526 1526 1528 1529 1530 1531 1531 1533 1534 1536 1536 1537 1539 1539 1540 1541 1542 1542 1543 1543 1544 1544 1544 1543 1542 1541 1540 1538 1537
1523 1523 1523 1523 1522 1522 1521 1521 1522 1522 1523 1524 1525 1526 1527 1528 1529 1530 1532 1533 1534 1534 1536 1537 1537 1538 1539 1539 1540 1540 1541 1541 1540 1540 1539 1537 1536 1535
1521 1521 1521 1521 1520 1519 1519 1518 1518 1519 1519 1520 1521 1522 1523 1524 1525 1526 1528 1529 1530 1530 1531 1532 1533 1534 1535 1535 1536 1537 1537 1537 1537 1536 1535 1534 1533 1532
1519 1519 1519 1519 1518 1517 1517 1516 1516 1516 1517 1517 1518 1519 1520 1521 1521 1522 1524 1525 1526 1527 1527 1528 1529 1529 1530 1530 1531 1532 1532 1533 1532 1532 1531 1531 1530 1529
1516 1516 1517 1517 1516 1516 1515 1515 1514 1514 1515 1515 1515 1516 1517 1517 1518 1519 1520 1521 1522 1522 1523 1523 1523 1524 1525 1525 1526 1526 1527 1527 1528 1527 1527 1526 1525 1525
1512 1513 1514 1514 1514 1514 1514 1514 1513 1513 1513 1514 1514 1514 1515 1515 1516 1516 1517 1517 1518 1519 1519 1519 1520 1519 1520 1520 1520 1521 1521 1522 1522 1523 1522 1522 1521 1520
1509 1510 1511 1511 1512 1512 1513 1513 1513 1513 1514 1514 1514 1514 1514 1514 1514 1514 1515 1515 1516 1516 1516 1516 1516 1516 1516 1515 1515 1515 1516 1517 1517 1517 1517 1517 1516 1516
1506 1507 1508 1509 1510 1510 1511 1512 1512 1513 1513 1513 1513 1514 1514 1514 1514 1514 1514 1514 1514 1514 1514 1513 1513 1513 1512 1512 1512 1512 1512 1512 1512 1512 1512 1512 1512 1511
1502 1503 1504 1505 1506 1508 1510 1510 1511 1512 1513 1513 1513 1514 1514 1514 1514 1514 1514 1513 1513 1513 1513 1512 1512 1511 1510 1510 1509 1509 1509 1508 1508 1508 1508 1507 1507 1506
1500 1500 1501 1502 1503 1505 1507 1509 1510 1511 1512 1513 1513 1514 1514 1514 1514 1514 1514 1514 1513 1513 1512 1512 1511 1510 1510 1509 1509 1508 1507 1506 1506 1505 1504 1503 1503 1502
1498 1498 1498 1499 1501 1503 1505 1507 1508 1510 1511 1512 1513 1513 1514 1514 1514 1514 1514 1514 1513 1513 1513 1512 1511 1511 1510 1509 1509 1508 1507 1505 1504 1503 1502 1501 1500 1499
1497 1497 1497 1498 1499 1501 1502 1504 1507 1508 1510 1511 1512 1513 1514 1514 1514 1514 1514 1514 1513 1513 1513 1512 1511 1511 1510 1509 1508 1507 1506 1505 1503 1502 1500 1499 1498 1497
1496 1496 1496 1496 1497 1499 1500 1503 1505 1507 1508 1510 1511 1512 1513 1514 1514 1514 1514 1514 1513 1513 1513 1512 1512 1511 1510 1509 1508 1507 1505 1504 1502 1501 1499 1498 1496 1495
1496 1496 1496 1496 1497 1498 1500 1502 1504 1506 1508 1509 1511 1512 1513 1514 1514 1514 1514 1514 1513 1513 1513 1512 1511 1510 1509 1508 1507 1506 1504 1503 1502 1500 1498 1497 1495 1493
1498 1498 1497 1498 1498 1499 1501 1502 1504 1506 1507 1509 1510 1512 1513 1513 1514 1514 1514 1514 1513 1513 1512 1511 1511 1510 1508 1507 1506 1505 1504 1502 1500 1499 1497 1495 1493 1491
1501 1500 1500 1501 1501 1502 1503 1504 1506 1507 1508 1510 1511 1512 1513 1514 1514 1514 1514 1514 1513 1512 1511 1510 1509 1508 1508 1507 1506 1504 1503 1501 1499 1497 1495 1493 1491 1490
1505 1505 1504 1505 1505 1506 1506 1507 1508 1509 1510 1511 1512 1513 1514 1514 1514 1514 1514 1513 1513 1512 1511 1510 1508 1507 1506 1505 1505 1504 1501 1499 1498 1496 1494 1492 1490 1488
1510 1509 1509 1509 1509 1510 1510 1511 1511 1512 1512 1513 1513 1514 1514 1514 1514 1514 1513 1513 1512 1512 1510 1509 1508 1506 1505 1505 1504 1503 1501 1499 1496 1494 1493 1491 1489 1487
1514 1514 1513 1513 1513 1513 1513 1513 1513 1513 1514 1514 1514 1514 1514 1514 1514 1514 1513 1513 1512 1511 1510 1509 1507 1506 1505 1504 1503 1502 1500 1498 1496 1494 1492 1490 1488 1486
1517 1516 1516 1515 1515 1515 1514 1514 1514 1514 1514 1514 1514 1514 1514 1514 1514 1514 1514 1513 1512 1511 1509 1508 1507 1506 1504 1503 1502 1502 1500 1499 1497 1495 1492 1490 1488 1485
1519 1518 1517 1516 1516 1515 1515 1514 1514 1513 1513 1513 1514 1514 1514 1515 1514 1514 1514 1512 1511 1510 1509 1508 1507 1506 1505 1504 1503 1502 1501 1499 1497 1495 1494 1492 1490 1488